Flag for Germany Weather past 2 weeks in Wedel, Schleswig-Holstein, Germany

Now
61 °F

Scattered showers. Broken clouds.


Feels Like: 61 °F
Forecast: 56 / 61 °F
Wind: 18 mph from Southwest

Location: Hamburg-Finkenwerder

Current Time: Jul 28, 2015 at 6:23:23 PM

Latest Report: Jul 28, 2015 at 5:50 PM


Visibility: N/A

Pressure: 29.56 "Hg

Humidity: 94%

Dew point: 59 °F

Location of WedelLocation

Historic Weather in Wedel — Graph

°F

Wedel temperature yesterday

Maximum temperature yesterday: 68 °F (at 3:50 PM)
Minimum temperature yesterday: 55 °F (at 5:50 AM)
Average temperature yesterday: 61 °F

Past Weeks' High & Low Weather Summary

 TemperatureHumidityPressure
High88 °F (Jul 17, 4:20 PM)100% (Jul 13, 5:20 PM)30.09 "Hg (Jul 13, 5:20 PM)
Low54 °F (Jul 20, 5:50 AM)41% (Jul 24, 4:20 PM)29.45 "Hg (Jul 27, 2:50 PM)
Average66 °F75%29.86 "Hg
* Reported Jul 13 5:20 PM — Jul 28 5:20 PM, Wedel, Weather by CustomWeather, © 2015

Note: Actual official high and low records may vary slightly from our data, if they occured in-between our weather recording intervals... More about our weather records

Advertising

Wedel weather history for previous 24 hours

 ConditionsComfort  
Time TempWeatherWind HumidityBarometerVisibility
5:20 PM
Tue, Jul 28
61 °FScattered showers. Broken clouds.14 mph100%29.56 "HgN/A
4:50 PM63 °FSprinkles. Broken clouds.18 mph88%29.56 "Hg4 mi
4:20 PM63 °FScattered showers. Broken clouds.15 mph88%29.56 "HgN/A
3:50 PM63 °FScattered showers. Broken clouds.17 mph88%29.56 "HgN/A
3:20 PM61 °FSprinkles. Broken clouds.17 mph94%29.56 "HgN/A
2:50 PM66 °FScattered showers. Broken clouds.25 mph68%29.53 "HgN/A
2:20 PM66 °FScattered showers. Partly sunny.18 mph68%29.53 "HgN/A
1:50 PM66 °FScattered showers. Broken clouds.18 mph68%29.53 "HgN/A
1:20 PM64 °FScattered showers. Broken clouds.20 mph73%29.53 "HgN/A
12:50 PM64 °FPartly sunny.21 mph78%29.53 "HgN/A
12:20 PM63 °FScattered showers. Broken clouds.17 mph83%29.53 "HgN/A
11:50 AM61 °FScattered showers. Broken clouds.21 mph94%29.53 "HgN/A
11:20 AM61 °FSprinkles. Partly sunny.18 mph94%29.50 "HgN/A
10:50 AM59 °FSprinkles. Broken clouds.17 mph100%29.50 "HgN/A
10:20 AM59 °FSprinkles. Partly sunny.17 mph100%29.50 "HgN/A
10:03 AM59 °FSprinkles. Partly sunny.17 mph100%29.50 "Hg6 mi
9:50 AM59 °FSprinkles. Broken clouds.17 mph100%29.50 "Hg6 mi
9:20 AM57 °FBroken clouds.16 mph100%29.50 "HgN/A
8:50 AM57 °FSprinkles. Partly sunny.16 mph100%29.50 "HgN/A
8:20 AM57 °FBroken clouds.16 mph100%29.50 "HgN/A
7:50 AM57 °FSprinkles. Partly sunny.15 mph100%29.47 "Hg6 mi
7:20 AM57 °FSprinkles. Broken clouds.14 mph100%29.47 "Hg4 mi
7:00 AM57 °FSprinkles. Broken clouds.16 mph100%29.47 "Hg4 mi
6:20 AM57 °FSprinkles. Partly cloudy.14 mph100%29.47 "HgN/A
9:20 PM
Mon, Jul 27
63 °FPartly sunny.14 mph88%29.47 "HgN/A
8:50 PM63 °FBroken clouds.13 mph88%29.47 "HgN/A
8:20 PM63 °FBroken clouds.8 mph94%29.47 "HgN/A
7:50 PM63 °FPartly sunny.9 mph94%29.47 "HgN/A
7:20 PM64 °FPartly sunny.15 mph83%29.47 "HgN/A
6:50 PM64 °FScattered showers. Broken clouds.20 mph83%29.45 "HgN/A
6:20 PM63 °FScattered showers. Scattered clouds.8 mph100%29.45 "HgN/A
Weather by CustomWeather, © 2015

See weather overviewHow to use our weather pages